Waukegan, IL

7:47 PM CDT on August 21, 2017 (GMT -0500)
Waukegan Regional

Weather History for KUGN - December, 2012

Change the Weather History Date:

Tuesday, December 11, 2012

  Actual Average Record
Temperature  
Mean Temperature 29 °F -  
Max Temperature 35 °F 35 °F 48 °F (2015)
Min Temperature 23 °F 21 °F -2 °F (2013)
Degree Days  
Heating Degree Days 36 37  
Month to date heating degree days 268 387  
Since 1 July heating degree days 1707 1772  
Cooling Degree Days 0 0  
Month to date cooling degree days 0 0  
Year to date cooling degree days 983 564  
Moisture  
Dew Point 21 °F    
Average Humidity 68    
Maximum Humidity 88    
Minimum Humidity 47    
Precipitation  
Precipitation 0.00 in 0.07 in 0.60 in (2010)
Month to date precipitation 0.85 0.88  
Year to date precipitation 24.26 34.47  
Sea Level Pressure  
Sea Level Pressure 30.02 in    
Wind  
Wind Speed 11 mph (SW)    
Max Wind Speed 23 mph    
Max Gust Speed 30 mph    
Visibility 10 miles    
Events      
T = Trace of Precipitation, MM = Missing Value Source: NWS Daily Summary

Daily Weather History Graph

Daily Weather History Graph

Search for Another Location

Airport or City:

Trip Planner

Search our weather history database for the weather conditions in past years. The results will help you decide how hot, cold, wet, or windy it might be!

Date:

Astronomy

Dec. 11, 2012 Rise Set
Actual Time 7:11 AM CST 4:18 PM CST
Civil Twilight 6:39 AM CST 4:50 PM CST
Nautical Twilight 6:03 AM CST 5:26 PM CST
Astronomical Twilight 5:29 AM CST 6:00 PM CST
Moon 5:04 AM CST (12/11) 2:58 PM CST (12/11)
Length of Visible Light 10h 11m
Length of Day
9h 07m
Waning Crescent, 4% of the Moon is Illuminated
Dec 11
Waning Crescent
Dec 13
New
Dec 19
First Quarter
Dec 28
Full
Jan 4
Last Quarter

Hourly Weather History & Observations

Time (CST) Temp. Windchill Dew Point Humidity Pressure Visibility Wind Dir Wind Speed Gust Speed Precip Events Conditions
12:00 AM 30.2 °F 26.7 °F 23.0 °F 75% 29.92 in 10.0 mi WNW 3.5 mph - N/A   Overcast
12:20 AM 30.2 °F - 24.8 °F 80% 29.92 in 10.0 mi Calm Calm - N/A   Overcast
12:52 AM 30.0 °F - 23.0 °F 75% 29.95 in 10.0 mi Calm Calm - N/A   Overcast
1:14 AM 30.2 °F - 24.8 °F 80% 29.92 in 10.0 mi Calm Calm - N/A   Overcast
1:52 AM 28.9 °F 25.2 °F 25.0 °F 85% 29.96 in 10.0 mi SSW 3.5 mph - N/A   Overcast
2:52 AM 28.9 °F 23.9 °F 24.1 °F 82% 29.97 in 10.0 mi SSW 4.6 mph - N/A   Overcast
3:52 AM 30.0 °F 24.1 °F 25.0 °F 82% 29.98 in 8.0 mi SW 5.8 mph - N/A   Overcast
4:52 AM 28.9 °F 23.9 °F 23.0 °F 78% 29.99 in 10.0 mi WSW 4.6 mph - N/A   Overcast
5:52 AM 27.0 °F 19.5 °F 21.9 °F 81% 30.01 in 10.0 mi SW 6.9 mph - N/A   Mostly Cloudy
6:52 AM 25.0 °F 16.3 °F 19.9 °F 81% 30.02 in 10.0 mi SW 8.1 mph - N/A   Clear
7:52 AM 24.1 °F 15.2 °F 21.0 °F 88% 30.02 in 8.0 mi SSW 8.1 mph - N/A   Clear
8:52 AM 26.1 °F 13.6 °F 19.0 °F 75% 30.03 in 10.0 mi SW 16.1 mph 19.6 mph N/A   Clear
9:52 AM 28.9 °F 18.6 °F 18.0 °F 64% 30.02 in 10.0 mi SW 12.7 mph 21.9 mph N/A   Clear
10:52 AM 30.9 °F 20.2 °F 17.1 °F 57% 30.01 in 10.0 mi SW 15.0 mph - N/A   Clear
11:52 AM 32.0 °F 20.8 °F 16.0 °F 52% 30.00 in 10.0 mi SSW 17.3 mph 24.2 mph N/A   Clear
1:52 PM 34.0 °F 22.7 °F 18.0 °F 52% 29.99 in 10.0 mi SW 19.6 mph 26.5 mph N/A   Scattered Clouds
2:52 PM 34.0 °F 24.2 °F 19.9 °F 56% 30.00 in 10.0 mi SW 15.0 mph 25.3 mph N/A   Scattered Clouds
3:52 PM 33.1 °F 23.4 °F 19.0 °F 56% 30.01 in 10.0 mi SW 13.8 mph 21.9 mph N/A   Clear
4:52 PM 30.0 °F - 19.9 °F 66% 30.04 in 10.0 mi Calm Calm - N/A   Clear
5:52 PM 27.0 °F 19.5 °F 21.0 °F 78% 30.07 in 10.0 mi SSW 6.9 mph - N/A   Clear
6:52 PM 28.9 °F 20.4 °F 21.9 °F 75% 30.08 in 10.0 mi SSW 9.2 mph - N/A   Overcast
7:52 PM 30.0 °F 20.0 °F 21.9 °F 72% 30.09 in 10.0 mi SSW 12.7 mph - N/A   Overcast
8:52 PM 30.9 °F 20.2 °F 21.9 °F 69% 30.10 in 10.0 mi SSW 15.0 mph - N/A   Overcast
9:52 PM 30.9 °F 21.2 °F 23.0 °F 72% 30.11 in 10.0 mi SSW 12.7 mph - N/A   Overcast
10:52 PM 30.9 °F 20.7 °F 21.9 °F 69% 30.13 in 10.0 mi SSW 13.8 mph - N/A   Overcast
11:52 PM 32.0 °F 23.6 °F 21.9 °F 66% 30.15 in 10.0 mi SW 10.4 mph - N/A   Overcast